Zurück zum Katalog

STARLINK-33622

AktivKommunikationVLEO
NORAD 63066·PAYLOAD·🇺🇸 United States

Gestartet Feb 21, 2025 von Cape Canaveral Space Force Station

Loading…

Nächste Überflüge (nächste 24 Stunden)

TLE

AktuellSource: CelesTrak SupGP

Epoche: Sep 14, 2026, 22:48 UTC

1 63066C 25035Q   26257.95048611 -.00059377  00000+0 -21509-2 0  2570
2 63066  43.0018 157.9680 0001294 273.7717 235.2829 15.27604084    14

Verfolge STARLINK-33622 in Echtzeit mit AllMySat

Download on the App Store